カタログに戻る

STARLINK-11593

運用中通信VLEO
NORAD 63318·PAYLOAD·🇺🇸 United States

打ち上げ Mar 18, 2025 から Cape Canaveral Space Force Station

Loading…

次のパス (今後24時間)

TLE

最新Source: CelesTrak SupGP

元期: Sep 15, 2026, 03:34 UTC

1 63318C 25057M   26258.14909722 -.00039341  00000+0 -30557-3 0  2589
2 63318  43.0007 202.2734 0001517 273.5333 226.8221 15.70857050    19

AllMySatでSTARLINK-11593をリアルタイム追跡

Download on the App Store